| time (UTC) | temp F | wind direction | speed knots | gust knots | rain 1hr in | rain 24hr in | rain mn in | humidity % | barometer mb |
| 20260506185410 | 58 | 39 | 1.7 | 7.8 | 0.00 | 0.41 | 0.41 | 57 | 1012.9 |
| 20260506184908 | 56 | 224 | 5.2 | 7.8 | 0.00 | 0.41 | 0.41 | 60 | 1013.1 |
| 20260506184404 | 57 | 4 | 3.5 | 8.7 | 0.00 | 0.41 | 0.41 | 60 | 1013.0 |
| 20260506183902 | 57 | 293 | 2.6 | 7.0 | 0.00 | 0.41 | 0.41 | 60 | 1013.0 |
| 20260506183357 | 57 | 276 | 4.3 | 6.1 | 0.00 | 0.41 | 0.41 | 58 | 1012.8 |
| 20260506182854 | 57 | 200 | 3.5 | 7.0 | 0.00 | 0.41 | 0.41 | 56 | 1012.9 |
| 20260506182351 | 57 | 243 | 2.6 | 7.8 | 0.00 | 0.41 | 0.41 | 60 | 1013.0 |
| 20260506181848 | 58 | 11 | 3.5 | 5.2 | 0.00 | 0.41 | 0.41 | 57 | 1012.9 |
| 20260506181346 | 57 | 53 | 3.5 | 6.1 | 0.00 | 0.41 | 0.41 | 63 | 1012.7 |
| 20260506180843 | 57 | 31 | 1.7 | 5.2 | 0.00 | 0.41 | 0.41 | 58 | 1012.7 |
| 20260506180339 | 57 | 318 | 5.2 | 7.8 | 0.00 | 0.41 | 0.41 | 56 | 1012.9 |
| 20260506175836 | 57 | 238 | 3.5 | 5.2 | 0.00 | 0.41 | 0.41 | 60 | 1013.1 |
| 20260506175332 | 57 | 232 | 5.2 | 8.7 | 0.00 | 0.41 | 0.41 | 57 | 1013.1 |
| 20260506174824 | 56 | 276 | 3.5 | 8.7 | 0.00 | 0.41 | 0.41 | 60 | 1013.0 |
| 20260506174321 | 57 | 280 | 7.0 | 9.6 | 0.00 | 0.41 | 0.41 | 60 | 1012.8 |
| 20260506173819 | 57 | 189 | 4.3 | 7.0 | 0.00 | 0.41 | 0.41 | 59 | 1012.8 |
| 20260506173316 | 56 | 257 | 5.2 | 6.1 | 0.00 | 0.41 | 0.41 | 58 | 1012.6 |
| 20260506172813 | 57 | 241 | 2.6 | 8.7 | 0.00 | 0.41 | 0.41 | 64 | 1012.7 |
| 20260506172309 | 57 | 299 | 3.5 | 8.7 | 0.00 | 0.41 | 0.41 | 60 | 1012.7 |
| 20260506171806 | 56 | 232 | 3.5 | 7.8 | 0.00 | 0.41 | 0.41 | 62 | 1012.7 |
| 20260506171303 | 55 | 38 | 3.5 | 6.1 | 0.00 | 0.41 | 0.41 | 67 | 1012.8 |
| 20260506170801 | 57 | 323 | 3.5 | 7.8 | 0.00 | 0.41 | 0.41 | 62 | 1012.8 |
| 20260506170257 | 55 | 282 | 5.2 | 7.8 | 0.00 | 0.41 | 0.41 | 63 | 1012.8 |
| 20260506165756 | 56 | 304 | 3.5 | 7.0 | 0.00 | 0.41 | 0.41 | 64 | 1012.6 |
| 20260506165253 | 57 | 292 | 6.1 | 8.7 | 0.00 | 0.41 | 0.41 | 62 | 1013.1 |
| 20260506164750 | 56 | 280 | 3.5 | 3.5 | 0.00 | 0.41 | 0.41 | 70 | 1013.1 |
| 20260506164247 | 55 | 63 | 5.2 | 7.0 | 0.00 | 0.41 | 0.41 | 65 | 1013.1 |
| 20260506163743 | 55 | 313 | 1.7 | 6.1 | 0.00 | 0.41 | 0.41 | 68 | 1013.0 |
| 20260506163238 | 55 | 119 | 1.7 | 5.2 | 0.00 | 0.41 | 0.41 | 73 | 1012.8 |
| 20260506162734 | 54 | 71 | 0.9 | 6.1 | 0.00 | 0.41 | 0.41 | 70 | 1012.8 |
| 20260506162232 | 55 | 114 | 1.7 | 5.2 | 0.00 | 0.41 | 0.41 | 66 | 1012.6 |
| 20260506161729 | 54 | 298 | 2.6 | 5.2 | 0.00 | 0.41 | 0.41 | 68 | 1012.9 |
| 20260506161226 | 55 | 247 | 1.7 | 3.5 | 0.00 | 0.41 | 0.41 | 69 | 1012.7 |
| 20260506160724 | 53 | 223 | 2.6 | 2.6 | 0.00 | 0.41 | 0.41 | 78 | 1012.8 |
| 20260506160220 | 53 | 255 | 2.6 | 6.1 | 0.00 | 0.41 | 0.41 | 71 | 1013.1 |
| 20260506155719 | 54 | 295 | 7.8 | 8.7 | 0.00 | 0.41 | 0.41 | 68 | 1012.7 |
| 20260506155216 | 53 | 213 | 0.9 | 5.2 | 0.00 | 0.41 | 0.41 | 76 | 1012.5 |
| 20260506153323 | 53 | 274 | 4.3 | 6.1 | 0.00 | 0.41 | 0.41 | 76 | 1012.3 |
| 20260506152820 | 53 | 42 | 1.7 | 5.2 | 0.00 | 0.41 | 0.41 | 77 | 1012.1 |
| 20260506152318 | 52 | 215 | 2.6 | 7.0 | 0.00 | 0.41 | 0.41 | 78 | 1012.3 |
| 20260506151817 | 51 | 293 | 1.7 | 3.5 | 0.00 | 0.41 | 0.41 | 76 | 1012.3 |
| 20260506151313 | 51 | 261 | 3.5 | 6.1 | 0.00 | 0.41 | 0.41 | 78 | 1012.5 |
| 20260506150809 | 50 | 202 | 3.5 | 3.5 | 0.00 | 0.41 | 0.41 | 78 | 1012.4 |
| 20260506150307 | 51 | 253 | 6.1 | 8.7 | 0.00 | 0.41 | 0.41 | 75 | 1012.3 |
| 20260506145803 | 51 | 206 | 1.7 | 3.5 | 0.00 | 0.41 | 0.41 | 78 | 1012.4 |
| 20260506145300 | 50 | 329 | 4.3 | 7.0 | 0.00 | 0.41 | 0.41 | 80 | 1012.0 |
| 20260506144757 | 50 | 246 | 0.9 | 3.5 | 0.00 | 0.41 | 0.41 | 79 | 1012.0 |
| 20260506144254 | 50 | 203 | 0.9 | 6.1 | 0.00 | 0.41 | 0.41 | 80 | 1011.7 |
| 20260506143752 | 49 | 69 | 0.9 | 6.1 | 0.00 | 0.41 | 0.41 | 83 | 1011.9 |
| 20260506143249 | 49 | 228 | 1.7 | 3.5 | 0.00 | 0.41 | 0.41 | 83 | 1011.8 |
| 20260506142747 | 48 | 65 | 2.6 | 6.1 | 0.00 | 0.41 | 0.41 | 84 | 1011.8 |
| 20260506142245 | 49 | 302 | 1.7 | 6.1 | 0.00 | 0.41 | 0.41 | 86 | 1011.5 |
| 20260506141743 | 48 | 242 | 3.5 | 7.0 | 0.00 | 0.41 | 0.41 | 87 | 1011.5 |
| 20260506141241 | 48 | 217 | 1.7 | 3.5 | 0.00 | 0.41 | 0.41 | 89 | 1011.6 |
| 20260506140738 | 47 | 186 | 0.0 | 3.5 | 0.00 | 0.41 | 0.41 | 90 | 1011.7 |
| 20260506140235 | 47 | 46 | 3.5 | 5.2 | 0.00 | 0.41 | 0.41 | 90 | 1011.7 |
| 20260506135732 | 47 | 283 | 2.6 | 6.1 | 0.00 | 0.41 | 0.41 | 91 | 1011.6 |
| 20260506135228 | 46 | 324 | 1.7 | 5.2 | 0.00 | 0.41 | 0.41 | 91 | 1011.3 |
| 20260506134725 | 46 | 65 | 1.7 | 3.5 | 0.00 | 0.41 | 0.41 | 94 | 1011.5 |
| 20260506134221 | 45 | 280 | 3.5 | 5.2 | 0.00 | 0.41 | 0.41 | 93 | 1011.7 |
| 20260506133719 | 45 | 325 | 3.5 | 6.1 | 0.00 | 0.41 | 0.41 | 95 | 1011.6 |
| 20260506133215 | 45 | 46 | 2.6 | 5.2 | 0.00 | 0.41 | 0.41 | 96 | 1011.5 |
| 20260506132712 | 45 | 282 | 3.5 | 6.1 | 0.00 | 0.41 | 0.41 | 99 | 1011.7 |
| 20260506132209 | 46 | 193 | 0.9 | 6.1 | 0.00 | 0.41 | 0.41 | 99 | 1011.4 |
| 20260506131707 | 46 | 25 | 2.6 | 2.6 | 0.00 | 0.41 | 0.41 | 99 | 1011.0 |
| 20260506131203 | 45 | 234 | 2.6 | 3.5 | 0.00 | 0.41 | 0.41 | 99 | 1011.2 |
| 20260506130700 | 45 | 248 | 2.6 | 5.2 | 0.00 | 0.41 | 0.41 | 99 | 1011.2 |
| 20260506130157 | 45 | 204 | 1.7 | 2.6 | 0.00 | 0.41 | 0.41 | 99 | 1011.3 |
| 20260506125655 | 45 | 211 | 0.9 | 3.5 | 0.00 | 0.41 | 0.41 | 99 | 1010.8 |
| 20260506125153 | 45 | 208 | 0.9 | 3.5 | 0.00 | 0.41 | 0.41 | 99 | 1010.8 |
| 20260506124650 | 45 | 30 | 0.9 | 1.7 | 0.00 | 0.41 | 0.41 | 99 | 1010.5 |
| 20260506124148 | 45 | 170 | 0.0 | 0.9 | 0.00 | 0.41 | 0.41 | 99 | 1010.5 |
| 20260506123645 | 45 | 155 | 0.0 | 0.9 | 0.00 | 0.41 | 0.41 | 99 | 1010.1 |
| 20260506123144 | 44 | 148 | 0.0 | 0.9 | 0.00 | 0.41 | 0.41 | 99 | 1010.3 |
| 20260506122640 | 44 | 192 | 1.7 | 2.6 | 0.00 | 0.41 | 0.41 | 99 | 1010.2 |
| 20260506122138 | 44 | 239 | 1.7 | 2.6 | 0.00 | 0.41 | 0.41 | 99 | 1010.5 |
| 20260506121635 | 44 | 255 | 1.7 | 1.7 | 0.00 | 0.41 | 0.41 | 99 | 1010.3 |
| 20260506121132 | 44 | 209 | 0.9 | 2.6 | 0.00 | 0.41 | 0.41 | 99 | 1010.4 |
| 20260506120630 | 44 | 197 | 0.0 | 2.6 | 0.00 | 0.41 | 0.41 | 99 | 1010.4 |
| 20260506120127 | 44 | 159 | 0.0 | 0.9 | 0.00 | 0.41 | 0.41 | 99 | 1010.1 |
| 20260506115625 | 44 | 139 | 0.9 | 3.5 | 0.00 | 0.41 | 0.41 | 99 | 1010.2 |
| 20260506115123 | 44 | 243 | 1.7 | 3.5 | 0.00 | 0.41 | 0.41 | 99 | 1010.1 |
| 20260506114620 | 44 | 29 | 0.9 | 3.5 | 0.00 | 0.41 | 0.41 | 99 | 1010.0 |
| 20260506114118 | 44 | 236 | 1.7 | 2.6 | 0.00 | 0.41 | 0.41 | 99 | 1009.8 |
| 20260506113616 | 44 | 192 | 0.9 | 2.6 | 0.00 | 0.41 | 0.41 | 99 | 1009.6 |
| 20260506113113 | 44 | 268 | 2.6 | 7.0 | 0.00 | 0.41 | 0.41 | 99 | 1009.2 |
| 20260506112609 | 44 | 189 | 0.0 | 5.2 | 0.00 | 0.41 | 0.41 | 99 | 1009.3 |
| 20260506112107 | 44 | 340 | 0.0 | 3.5 | 0.00 | 0.41 | 0.41 | 99 | 1009.3 |
| 20260506111605 | 44 | 214 | 1.7 | 2.6 | 0.00 | 0.41 | 0.41 | 99 | 1009.8 |
| 20260506111102 | 44 | 102 | 0.9 | 1.7 | 0.00 | 0.41 | 0.41 | 99 | 1009.6 |
| 20260506110559 | 44 | 203 | 0.0 | 1.7 | 0.00 | 0.41 | 0.41 | 99 | 1009.6 |
| 20260506110056 | 44 | 197 | 0.0 | 0.0 | 0.00 | 0.41 | 0.41 | 99 | 1009.3 |
| 20260506105553 | 44 | 180 | 0.9 | 0.9 | 0.00 | 0.41 | 0.41 | 99 | 1009.3 |
| 20260506105050 | 44 | 150 | 0.0 | 2.6 | 0.00 | 0.41 | 0.41 | 99 | 1009.5 |
| 20260506104548 | 44 | 278 | 2.6 | 7.0 | 0.00 | 0.41 | 0.41 | 99 | 1009.7 |
| 20260506104045 | 44 | 284 | 1.7 | 2.6 | 0.00 | 0.41 | 0.41 | 99 | 1009.5 |
| 20260506103542 | 44 | 216 | 0.9 | 1.7 | 0.00 | 0.41 | 0.41 | 99 | 1009.5 |
| 20260506103039 | 44 | 204 | 1.7 | 1.7 | 0.00 | 0.41 | 0.41 | 99 | 1009.2 |
| 20260506102538 | 44 | 202 | 0.0 | 2.6 | 0.00 | 0.41 | 0.41 | 99 | 1008.8 |
| 20260506102035 | 44 | 163 | 0.0 | 0.9 | 0.00 | 0.41 | 0.41 | 99 | 1008.8 |
| 20260506101531 | 44 | 163 | 0.0 | 1.7 | 0.00 | 0.41 | 0.41 | 99 | 1008.3 |
| 20260506101028 | 44 | 205 | 0.9 | 1.7 | 0.00 | 0.41 | 0.41 | 99 | 1008.7 |
| 20260506100527 | 44 | 257 | 1.7 | 1.7 | 0.00 | 0.41 | 0.41 | 99 | 1008.4 |
| 20260506100024 | 44 | 194 | 0.0 | 1.7 | 0.00 | 0.41 | 0.41 | 99 | 1007.8 |
| 20260506095523 | 44 | 127 | 0.9 | 0.9 | 0.05 | 0.41 | 0.41 | 99 | 1007.8 |
| 20260506095019 | 44 | 134 | 0.0 | 1.7 | 0.05 | 0.41 | 0.41 | 99 | 1007.9 |
| 20260506094517 | 44 | 202 | 0.9 | 1.7 | 0.00 | 0.40 | 0.40 | 99 | 1008.6 |
| 20260506094014 | 44 | 195 | 0.9 | 1.7 | 0.00 | 0.40 | 0.40 | 99 | 1008.6 |
| 20260506093512 | 44 | 352 | 1.7 | 2.6 | 0.00 | 0.40 | 0.40 | 99 | 1008.9 |
| 20260506093010 | 44 | 86 | 1.7 | 3.5 | 0.00 | 0.40 | 0.40 | 99 | 1008.4 |
| 20260506092508 | 44 | 151 | 1.7 | 3.5 | 0.07 | 0.40 | 0.40 | 99 | 1008.3 |
| 20260506092004 | 44 | 67 | 1.7 | 5.2 | 0.00 | 0.39 | 0.39 | 99 | 1008.2 |
| 20260506091503 | 44 | 145 | 1.7 | 1.7 | 0.05 | 0.39 | 0.39 | 99 | 1008.6 |
| 20260506090959 | 44 | 109 | 2.6 | 3.5 | 0.05 | 0.39 | 0.39 | 99 | 1008.6 |
| 20260506090457 | 44 | 222 | 0.9 | 1.7 | 0.07 | 0.38 | 0.38 | 99 | 1008.8 |
| 20260506085953 | 44 | 109 | 1.7 | 2.6 | 0.07 | 0.38 | 0.38 | 99 | 1008.7 |
| 20260506085450 | 45 | 125 | 0.9 | 2.6 | 0.05 | 0.37 | 0.37 | 99 | 1008.6 |
| 20260506084946 | 44 | 157 | 0.9 | 1.7 | 0.05 | 0.37 | 0.37 | 99 | 1008.8 |
| 20260506084443 | 44 | 165 | 0.0 | 1.7 | 0.07 | 0.36 | 0.36 | 99 | 1008.5 |
| 20260506083939 | 45 | 168 | 0.0 | 0.9 | 0.07 | 0.36 | 0.36 | 99 | 1008.6 |
| 20260506083437 | 44 | 203 | 0.0 | 1.7 | 0.12 | 0.35 | 0.35 | 99 | 1008.6 |
| 20260506082934 | 45 | 314 | 3.5 | 3.5 | 0.12 | 0.34 | 0.34 | 99 | 1008.8 |
| 20260506082431 | 45 | 189 | 0.9 | 2.6 | 0.12 | 0.33 | 0.33 | 99 | 1008.6 |
| 20260506081926 | 45 | 153 | 2.6 | 6.1 | 0.07 | 0.32 | 0.32 | 99 | 1008.4 |
| 20260506081425 | 46 | 278 | 1.7 | 3.5 | 0.05 | 0.31 | 0.31 | 99 | 1008.6 |
| 20260506080922 | 46 | 13 | 2.6 | 3.5 | 0.07 | 0.30 | 0.30 | 99 | 1008.4 |
| 20260506080419 | 46 | 75 | 1.7 | 1.7 | 0.07 | 0.30 | 0.30 | 99 | 1008.4 |
| 20260506073403 | 48 | 1 | 1.7 | 2.6 | 0.07 | 0.27 | 0.27 | 99 | 1007.9 |
| 20260506072900 | 48 | 125 | 0.9 | 1.7 | 0.12 | 0.26 | 0.26 | 99 | 1007.6 |
| 20260506072357 | 48 | 87 | 2.6 | 5.2 | 0.12 | 0.25 | 0.25 | 99 | 1007.6 |
| 20260506071854 | 48 | 202 | 0.9 | 3.5 | 0.17 | 0.24 | 0.24 | 99 | 1007.5 |
| 20260506071353 | 48 | 194 | 0.0 | 1.7 | 0.19 | 0.23 | 0.23 | 99 | 1007.9 |
| 20260506070849 | 48 | 220 | 0.0 | 1.7 | 0.19 | 0.21 | 0.21 | 99 | 1008.1 |
| 20260506070346 | 48 | 4 | 1.7 | 3.5 | 0.17 | 0.20 | 0.20 | 99 | 1008.0 |
| 20260506062323 | 49 | 156 | 0.0 | 1.7 | 0.12 | 0.10 | 0.10 | 99 | 1007.6 |
| 20260506061819 | 49 | 246 | 0.9 | 2.6 | 0.12 | 0.09 | 0.09 | 99 | 1007.5 |
| 20260506061316 | 49 | 196 | 0.9 | 1.7 | 0.07 | 0.08 | 0.08 | 99 | 1007.8 |
| 20260506060815 | 49 | 330 | 1.7 | 2.6 | 0.05 | 0.07 | 0.07 | 99 | 1008.0 |
| 20260506060312 | 49 | 199 | 0.0 | 0.9 | 0.07 | 0.06 | 0.06 | 99 | 1008.0 |
| 20260506051244 | 49 | 179 | 0.0 | 1.7 | 0.00 | 0.02 | 0.02 | 99 | 1008.6 |
| 20260506050742 | 50 | 133 | 0.9 | 3.5 | 0.00 | 0.02 | 0.02 | 99 | 1008.5 |
| 20260506050239 | 50 | 178 | 0.0 | 0.0 | 0.00 | 0.02 | 0.02 | 99 | 1008.5 |
| 20260506044730 | 50 | 185 | 0.0 | 0.0 | 0.00 | 0.02 | 0.02 | 99 | 1008.5 |
| 20260506044227 | 50 | 230 | 0.9 | 1.7 | 0.00 | 0.02 | 0.02 | 99 | 1008.4 |
| 20260506043724 | 50 | 161 | 0.0 | 0.0 | 0.00 | 0.02 | 0.02 | 99 | 1008.6 |
| 20260506043222 | 50 | 244 | 0.9 | 1.7 | 0.00 | 0.02 | 0.02 | 99 | 1008.5 |
| 20260506042720 | 50 | 147 | 0.9 | 0.9 | 0.00 | 0.02 | 0.02 | 99 | 1008.7 |
| 20260506042218 | 50 | 194 | 0.0 | 0.9 | 0.05 | 0.02 | 0.02 | 99 | 1008.4 |
| 20260506041716 | 50 | 219 | 0.9 | 1.7 | 0.05 | 0.02 | 0.02 | 99 | 1008.7 |
| 20260506041213 | 50 | 211 | 0.9 | 1.7 | 0.07 | 0.01 | 0.01 | 99 | 1008.6 |
| 20260506040711 | 50 | 267 | 3.5 | 5.2 | 0.07 | 0.01 | 0.01 | 99 | 1008.8 |
| 20260506040207 | 50 | 189 | 0.0 | 3.5 | 0.00 | 0.00 | 0.00 | 99 | 1008.6 |
| 20260506035704 | 50 | 196 | 2.6 | 6.1 | 0.00 | 0.67 | 0.67 | 99 | 1008.9 |
| 20260506035201 | 50 | 257 | 3.5 | 5.2 | 0.05 | 0.67 | 0.67 | 99 | 1009.1 |
| 20260506034658 | 50 | 203 | 1.7 | 3.5 | 0.07 | 0.66 | 0.66 | 99 | 1008.9 |
| 20260506034155 | 51 | 156 | 1.7 | 5.2 | 0.12 | 0.66 | 0.66 | 99 | 1009.0 |
| 20260506033652 | 51 | 251 | 2.6 | 8.7 | 0.12 | 0.65 | 0.65 | 99 | 1008.9 |
| 20260506033149 | 52 | 225 | 1.7 | 3.5 | 0.12 | 0.64 | 0.64 | 99 | 1009.1 |
| 20260506032646 | 52 | 211 | 0.9 | 5.2 | 0.17 | 0.63 | 0.63 | 99 | 1009.0 |
| 20260506032143 | 54 | 209 | 3.5 | 8.7 | 0.19 | 0.62 | 0.62 | 99 | 1009.0 |
| 20260506031640 | 57 | 242 | 5.2 | 7.0 | 0.14 | 0.60 | 0.60 | 99 | 1008.8 |
| 20260506031137 | 57 | 205 | 2.6 | 6.1 | 0.07 | 0.59 | 0.59 | 99 | 1008.7 |
| 20260506030636 | 57 | 215 | 1.7 | 6.1 | 0.05 | 0.58 | 0.58 | 99 | 1008.9 |
| 20260506030132 | 57 | 188 | 2.6 | 6.1 | 0.12 | 0.58 | 0.58 | 99 | 1008.9 |
| 20260506025629 | 57 | 229 | 2.6 | 3.5 | 0.12 | 0.57 | 0.57 | 99 | 1008.9 |
| 20260506025125 | 57 | 225 | 3.5 | 5.2 | 0.12 | 0.56 | 0.56 | 99 | 1008.8 |
| 20260506024623 | 57 | 203 | 4.3 | 6.1 | 0.12 | 0.55 | 0.55 | 99 | 1008.8 |
| 20260506024119 | 57 | 188 | 0.9 | 5.2 | 0.05 | 0.54 | 0.54 | 99 | 1008.8 |
| 20260506023615 | 57 | 187 | 1.7 | 3.5 | 0.07 | 0.53 | 0.53 | 99 | 1009.2 |
| 20260506023113 | 57 | 191 | 0.9 | 1.7 | 0.07 | 0.53 | 0.53 | 99 | 1008.9 |
| 20260506022610 | 57 | 204 | 3.5 | 5.2 | 0.05 | 0.52 | 0.52 | 99 | 1009.1 |
| 20260506022107 | 57 | 191 | 0.9 | 3.5 | 0.17 | 0.52 | 0.52 | 99 | 1009.1 |
| 20260506021605 | 57 | 191 | 0.9 | 1.7 | 0.12 | 0.50 | 0.50 | 99 | 1009.2 |
| 20260506021102 | 57 | 193 | 0.0 | 0.9 | 0.07 | 0.49 | 0.49 | 99 | 1009.2 |
| 20260506020559 | 57 | 230 | 0.9 | 1.7 | 0.05 | 0.48 | 0.48 | 99 | 1009.1 |
| 20260506020056 | 58 | 213 | 0.9 | 2.6 | 0.05 | 0.48 | 0.48 | 99 | 1009.0 |
| 20260506015554 | 58 | 186 | 0.0 | 0.9 | 0.07 | 0.47 | 0.47 | 99 | 1009.2 |
| 20260506015050 | 58 | 194 | 0.9 | 0.9 | 0.07 | 0.47 | 0.47 | 99 | 1009.0 |
| 20260506014548 | 58 | 180 | 1.7 | 2.6 | 0.07 | 0.46 | 0.46 | 99 | 1009.3 |
| 20260506014043 | 58 | 180 | 0.0 | 1.7 | 0.07 | 0.46 | 0.46 | 99 | 1009.3 |
| 20260506013542 | 58 | 216 | 0.9 | 1.7 | 0.00 | 0.45 | 0.45 | 99 | 1009.0 |
| 20260506013038 | 58 | 275 | 3.5 | 3.5 | 0.00 | 0.45 | 0.45 | 99 | 1009.0 |
| 20260506012534 | 58 | 173 | 0.0 | 1.7 | 0.00 | 0.45 | 0.45 | 99 | 1008.9 |
| 20260506012031 | 58 | 191 | 0.0 | 2.6 | 0.05 | 0.45 | 0.45 | 99 | 1008.8 |
| 20260506011529 | 58 | 210 | 2.6 | 5.2 | 0.07 | 0.44 | 0.44 | 99 | 1009.0 |
| 20260506011025 | 58 | 185 | 0.9 | 1.7 | 0.07 | 0.44 | 0.44 | 99 | 1008.8 |
| 20260506010525 | 58 | 212 | 3.5 | 3.5 | 0.12 | 0.43 | 0.43 | 99 | 1008.8 |
| 20260506010021 | 58 | 195 | 0.9 | 2.6 | 0.17 | 0.43 | 0.43 | 99 | 1008.8 |
| 20260506005518 | 58 | 180 | 0.0 | 0.0 | 0.12 | 0.41 | 0.41 | 99 | 1008.6 |
| 20260506005014 | 58 | 184 | 0.0 | 0.9 | 0.12 | 0.40 | 0.40 | 99 | 1008.8 |
| 20260506004512 | 58 | 193 | 0.0 | 0.0 | 0.05 | 0.39 | 0.39 | 99 | 1008.7 |
| 20260506004008 | 57 | 194 | 0.0 | 0.0 | 0.00 | 0.38 | 0.38 | 99 | 1008.6 |
| 20260506003504 | 57 | 195 | 0.0 | 0.9 | 0.00 | 0.38 | 0.38 | 99 | 1008.6 |
| 20260506003000 | 57 | 200 | 0.0 | 0.9 | 0.00 | 0.38 | 0.38 | 99 | 1008.7 |
| 20260506002456 | 57 | 200 | 0.0 | 1.7 | 0.00 | 0.38 | 0.38 | 99 | 1008.6 |
| 20260506001952 | 57 | 196 | 0.0 | 0.9 | 0.00 | 0.38 | 0.38 | 99 | 1008.7 |
| 20260506001449 | 57 | 194 | 0.0 | 1.7 | 0.00 | 0.38 | 0.38 | 99 | 1008.6 |
| 20260506000946 | 57 | 196 | 0.0 | 0.9 | 0.00 | 0.38 | 0.38 | 99 | 1008.7 |
| 20260506000445 | 57 | 190 | 0.0 | 0.0 | 0.00 | 0.38 | 0.38 | 99 | 1008.7 |
| 20260505235940 | 58 | 201 | 0.0 | 1.7 | 0.00 | 0.38 | 0.38 | 99 | 1008.7 |
| 20260505235439 | 58 | 176 | 0.0 | 1.7 | 0.00 | 0.38 | 0.38 | 99 | 1008.9 |
| 20260505234935 | 57 | 207 | 0.0 | 2.6 | 0.07 | 0.38 | 0.38 | 99 | 1008.8 |
| 20260505234433 | 57 | 186 | 0.0 | 2.6 | 0.12 | 0.38 | 0.38 | 99 | 1008.8 |
| 20260505233929 | 57 | 190 | 0.0 | 1.7 | 0.05 | 0.37 | 0.37 | 99 | 1008.9 |
| 20260505233427 | 57 | 204 | 0.0 | 0.9 | 0.00 | 0.36 | 0.36 | 99 | 1009.2 |
| 20260505232924 | 57 | 207 | 1.7 | 2.6 | 0.00 | 0.36 | 0.36 | 99 | 1009.0 |
| 20260505232422 | 57 | 186 | 0.9 | 0.9 | 0.00 | 0.36 | 0.36 | 99 | 1009.1 |
| 20260505231919 | 57 | 221 | 1.7 | 3.5 | 0.00 | 0.36 | 0.36 | 99 | 1008.9 |
| 20260505231416 | 57 | 210 | 0.9 | 2.6 | 0.07 | 0.36 | 0.36 | 99 | 1009.0 |
| 20260505230914 | 57 | 202 | 0.9 | 2.6 | 0.07 | 0.36 | 0.36 | 99 | 1009.1 |
| 20260505230412 | 57 | 279 | 1.7 | 2.6 | 0.00 | 0.35 | 0.35 | 99 | 1009.0 |
| 20260505225908 | 57 | 179 | 2.6 | 3.5 | 0.05 | 0.35 | 0.35 | 99 | 1009.1 |
| 20260505225405 | 57 | 201 | 0.0 | 0.9 | 0.12 | 0.35 | 0.35 | 99 | 1009.0 |
| 20260505224901 | 57 | 210 | 0.9 | 2.6 | 0.14 | 0.34 | 0.34 | 99 | 1009.5 |
| 20260505224358 | 57 | 246 | 1.7 | 2.6 | 0.12 | 0.33 | 0.33 | 99 | 1009.5 |
| 20260505223855 | 57 | 220 | 2.6 | 3.5 | 0.12 | 0.32 | 0.32 | 99 | 1009.4 |
| 20260505223352 | 57 | 264 | 2.6 | 5.2 | 0.12 | 0.30 | 0.30 | 99 | 1009.5 |
| 20260505222848 | 57 | 197 | 2.6 | 7.0 | 0.19 | 0.29 | 0.29 | 98 | 1009.4 |
| 20260505222344 | 57 | 214 | 1.7 | 5.2 | 0.19 | 0.27 | 0.27 | 98 | 1009.4 |
| 20260505221841 | 57 | 176 | 1.7 | 3.5 | 0.54 | 0.25 | 0.25 | 98 | 1009.3 |
| 20260505221338 | 57 | 273 | 2.6 | 8.7 | 1.32 | 0.23 | 0.23 | 98 | 1009.4 |
| 20260505220835 | 63 | 275 | 14.8 | 22.6 | 0.40 | 0.08 | 0.08 | 90 | 1009.6 |
| 20260505220332 | 67 | 276 | 1.7 | 6.1 | 0.00 | 0.01 | 0.01 | 73 | 1008.5 |
| 20260505215830 | 67 | 216 | 1.7 | 3.5 | 0.00 | 0.01 | 0.01 | 71 | 1008.1 |
| 20260505215328 | 67 | 200 | 3.5 | 11.3 | 0.00 | 0.01 | 0.01 | 70 | 1008.0 |
| 20260505214825 | 67 | 239 | 3.5 | 5.2 | 0.00 | 0.01 | 0.01 | 70 | 1008.1 |
| 20260505214323 | 67 | 159 | 2.6 | 8.7 | 0.00 | 0.01 | 0.01 | 71 | 1008.0 |
| 20260505213819 | 68 | 202 | 0.9 | 5.2 | 0.00 | 0.01 | 0.01 | 70 | 1008.0 |
| 20260505213318 | 68 | 239 | 1.7 | 3.5 | 0.00 | 0.01 | 0.01 | 71 | 1007.9 |
| 20260505212813 | 67 | 202 | 1.7 | 2.6 | 0.00 | 0.01 | 0.01 | 71 | 1007.9 |
| 20260505212310 | 66 | 216 | 2.6 | 6.1 | 0.00 | 0.01 | 0.01 | 71 | 1008.1 |
| 20260505211806 | 66 | 201 | 1.7 | 2.6 | 0.00 | 0.01 | 0.01 | 71 | 1008.1 |
| 20260505211304 | 67 | 218 | 3.5 | 5.2 | 0.00 | 0.01 | 0.01 | 70 | 1008.1 |
| 20260505210801 | 66 | 177 | 1.7 | 3.5 | 0.00 | 0.01 | 0.01 | 72 | 1008.0 |
| 20260505210258 | 66 | 214 | 5.2 | 8.7 | 0.00 | 0.01 | 0.01 | 70 | 1008.2 |
| 20260505205754 | 66 | 214 | 0.9 | 3.5 | 0.00 | 0.01 | 0.01 | 71 | 1008.3 |
| 20260505205253 | 66 | 195 | 0.0 | 2.6 | 0.00 | 0.01 | 0.01 | 71 | 1008.4 |
| 20260505204749 | 66 | 214 | 1.7 | 3.5 | 0.00 | 0.01 | 0.01 | 71 | 1008.3 |
| 20260505204247 | 66 | 204 | 3.5 | 5.2 | 0.00 | 0.01 | 0.01 | 70 | 1008.3 |
| 20260505203744 | 66 | 178 | 0.0 | 6.1 | 0.00 | 0.01 | 0.01 | 71 | 1008.5 |
| 20260505203241 | 66 | 212 | 0.9 | 5.2 | 0.00 | 0.01 | 0.01 | 70 | 1008.5 |
| 20260505202737 | 66 | 218 | 4.3 | 6.1 | 0.00 | 0.01 | 0.01 | 69 | 1008.6 |
| 20260505202233 | 66 | 203 | 1.7 | 5.2 | 0.00 | 0.01 | 0.01 | 70 | 1008.7 |
| 20260505201729 | 66 | 261 | 3.5 | 5.2 | 0.00 | 0.01 | 0.01 | 71 | 1008.9 |
| 20260505201227 | 66 | 219 | 3.5 | 6.1 | 0.00 | 0.01 | 0.01 | 70 | 1008.6 |
| 20260505200726 | 66 | 215 | 1.7 | 7.0 | 0.00 | 0.01 | 0.01 | 70 | 1008.9 |
| 20260505200222 | 66 | 218 | 0.9 | 3.5 | 0.00 | 0.01 | 0.01 | 71 | 1008.8 |
| 20260505195718 | 66 | 223 | 0.9 | 2.6 | 0.00 | 0.01 | 0.01 | 70 | 1008.9 |
| 20260505195215 | 66 | 197 | 1.7 | 7.0 | 0.00 | 0.01 | 0.01 | 71 | 1009.0 |
| 20260505194713 | 66 | 192 | 1.7 | 2.6 | 0.00 | 0.01 | 0.01 | 72 | 1009.0 |
| 20260505194209 | 66 | 211 | 1.7 | 3.5 | 0.00 | 0.01 | 0.01 | 72 | 1009.3 |
| 20260505193705 | 66 | 193 | 0.9 | 5.2 | 0.00 | 0.01 | 0.01 | 73 | 1009.1 |
| 20260505193202 | 66 | 238 | 3.5 | 6.1 | 0.00 | 0.01 | 0.01 | 72 | 1009.2 |
| 20260505192701 | 65 | 272 | 3.5 | 5.2 | 0.00 | 0.01 | 0.01 | 73 | 1009.4 |
| 20260505192158 | 66 | 190 | 3.5 | 8.7 | 0.00 | 0.01 | 0.01 | 73 | 1009.2 |
| 20260505191656 | 66 | 191 | 1.7 | 5.2 | 0.00 | 0.01 | 0.01 | 72 | 1009.5 |
| 20260505191154 | 66 | 218 | 2.6 | 3.5 | 0.00 | 0.01 | 0.01 | 72 | 1009.4 |
| 20260505190650 | 66 | 196 | 2.6 | 2.6 | 0.00 | 0.01 | 0.01 | 71 | 1009.4 |
| 20260505190149 | 66 | 199 | 1.7 | 5.2 | 0.00 | 0.01 | 0.01 | 71 | 1009.2 |
| 20260505185646 | 66 | 214 | 5.2 | 6.1 | 0.00 | 0.01 | 0.01 | 69 | 1009.2 |